Regional Weather Roundup
Issued by NWS New Orleans/Baton Rouge, LA

Home | Current Version | Previous Version | Text Only | Print | Product List | Glossary On
Versions: 1 2 3 4 5 6 7 8 9 10 11 12 13 14 15 16 17 18 19 20 21 22 23 24 25 26 27 28 29 30 31 32 33 34 35 36 37 38 39 40 41 42 43 44 45 46 47 48 49 50
000
ASUS44 KLIX 011912
RWRLIX
NEW ORLEANS REGIONAL WEATHER ROUNDUP
NATIONAL WEATHER SERVICE NEW ORLEANS LA
200 PM CDT SAT AUG 01 2015

NOTE: "FAIR" INDICATES FEW OR NO CLOUDS BELOW 12,000 FEET WITH NO
      SIGNIFICANT WEATHER AND/OR OBSTRUCTIONS TO VISIBILITY.
      SKY/WX - SKY CONDITION AND SIGNIFICANT WEATHER.
      TMP - AIR TEMPERATURE.     DP    - DEWPOINT TEMPERATURE.
      RH  - RELATIVE HUMIDITY.   PRES  - PRESSURE.
      HI  - HEAT INDEX.          WCI   - WIND CHILL INDEX.

*  THESE STATIONS ARE NOT NWS OR FAA STATIONS AND ARE NOT UNDER
   NWS QUALITY CONTROL.

LAZ038-040-048-061>063-065>067-069-012000-
SOUTHEAST LOUISIANA

CITY           SKY/WX    TMP DP  RH WIND       PRES   REMARKS
N.O. AUDUBON     N/A     93  74  54 MISG        N/A  HX 103
N.O. INTL ARPT MOSUNNY   90  70  51 NE12      29.92F HX  95
N.O. LAKEFRONT SUNNY     88  71  57 NW5       29.92F
N.O. DOWNTOWN*   N/A     90  70  51 NE8       29.92F HX  95
RESERVE*         N/A     92  69  47 N10G16    29.92F HX  97
SLIDELL        MOSUNNY   91  69  48 NE7       29.91F HX  96
BATON ROUGE    SUNNY     93  64  38 N8        29.93F
BOOTHVILLE     SUNNY     88  74  63 N9        29.91F HX  96
BELLE CHASSE   MOSUNNY   90  72  55 N5        29.91F HX  97
BOGALUSA*        N/A     92  64  39 N9        29.95F
GALLIANO*      NOT AVBL
NEW ROADS*       N/A    N/A N/A N/A N9G16     29.94F
GONZALES*        N/A     92  66  43 E6        29.91F
HAMMOND*       SUNNY     93  61  33 N7        29.94F
HOUMA*         MOSUNNY   93  66  40 N6        29.91F HX  96
PORT FOURCHON* NOT AVBL

$$

MSZ070-080>082-012000-
SOUTHERN MISSISSIPPI

CITY           SKY/WX    TMP DP  RH WIND       PRES   REMARKS
MCCOMB         SUNNY     93  60  33 VRB5G18   29.94F
GULFPORT       MOSUNNY   94  68  42 N9        29.89F HX  98
BILOXI         SUNNY     92  72  51 N9        29.89F HX 100
PASCAGOULA     SUNNY     93  73  52 N6        29.89F HX 102
STENNIS ARPT*  MOSUNNY   91  59  33 N7        29.91F

$$

COASTAL OBSERVATIONS
LAKE AND NEARSHORE STATIONS

STATION/POSITION TIME  TEMP    WIND        PRES    WAVE
                       AIR SEA DIR/SP/G            HT/PER
                 (UTC) (F)     (DEG/KT/KT) (MB)    (FT/S)
PASCAGOULA       1800   91     350/  5/  9 1012.4
WAVELAND YACHT   1800   88 85   50/  6/  8 1013.6
GRAND ISLE       1800   89 89   10/  7/ 11 1013.3
SOUTHWEST PASS   1800   90 87   10/ 11/ 12 1013.4
NEW CANAL        1800   83 87   10/  5/  6 1012.8
SHELL BEACH      1800   82 87   20/  8/  9 1013.1

OFFSHORE STATIONS

STATION/POSITION TIME  TEMP    WIND        PRES    WAVE
                       AIR SEA DIR/SP/G            HT/PER
                 (UTC) (F)     (DEG/KT/KT) (MB)    (FT/S)
64 S DAUPHIN ISL 1850   85 88  340/  8/ 10 1012.3    1/ 4

$$



USA.gov is the U.S. government's official web portal to all federal, state and local government web resources and services.